Weather History for Bow Valley, AB

Change the Weather History Date:

Friday, October 26, 2012

  Actual Average Record
Temperature  
Mean Temperature 18 °F -  
Max Temperature 23 °F - - ()
Min Temperature 12 °F - - ()
Degree Days  
Heating Degree Days 48    
Moisture  
Dew Point 17 °F    
Average Humidity 86    
Maximum Humidity 92    
Minimum Humidity 74    
Precipitation  
Precipitation 0.00 in - - ()
Sea Level Pressure  
Sea Level Pressure 30.33 in    
Wind  
Wind Speed 2 mph ()    
Max Wind Speed 5 mph    
Max Gust Speed -    
T = Trace of Precipitation, MM = Missing Value Source: Averaged Metar Reports

Daily Weather History Graph

Daily Weather History Graph

Search for Another Location

Airport:

Trip Planner

Search our weather history database for the weather conditions in past years. The results will help you decide how hot, cold, wet, or windy it might be!

Date:

Astronomy

Oct. 26, 2012 Rise Set
Actual Time 8:23 AM MDT 6:24 PM MDT
Civil Twilight 7:49 AM MDT 6:58 PM MDT
Nautical Twilight 7:10 AM MDT 7:37 PM MDT
Astronomical Twilight 6:32 AM MDT 8:15 PM MDT
Moon 4:55 PM MDT (10/26) 5:07 AM MDT (10/26)
Length of Visible Light 11h 09m
Length of Day
10h 00m
Waxing Gibbous, 91% of the Moon is Illuminated
Oct 26
Waxing Gibbous
Oct 29
Full
Nov 6
Last Quarter
Nov 13
New
Nov 20
First Quarter

Hourly Weather History & Observations

Time (MDT) Temp. Windchill Dew Point Humidity Pressure Visibility Wind Dir Wind Speed Gust Speed Precip Events Conditions
12:00 AM 20 °F - 17 °F 82% 30.44 in - SE 1.2 mph - -  
12:00 AM 19.6 °F - 16.9 °F 89% 30.44 in - SE 1.2 mph - N/A   Unknown
1:00 AM 19.4 °F - 17.2 °F 91% 30.42 in - ENE 1.2 mph - N/A   Unknown
2:00 AM 19.6 °F - 16.7 °F 89% 30.41 in - NE 1.2 mph - N/A   Unknown
3:00 AM 18.9 °F - 16.7 °F 91% 30.41 in - Calm Calm - N/A   Unknown
4:00 AM 19.4 °F - 16.7 °F 89% 30.40 in - NNE 1.2 mph - N/A   Unknown
5:00 AM 19.2 °F - 16.7 °F 90% 30.39 in - ENE 1.2 mph - N/A   Unknown
6:00 AM 19 °F - 17 °F 85% 30.42 in - NE 3.5 mph - -  
6:00 AM 18.9 °F 13.7 °F 16.5 °F 91% 30.42 in - NE 3.5 mph - N/A   Unknown
7:00 AM 18.9 °F - 16.7 °F 91% 30.40 in - ENE 2.3 mph - N/A   Unknown
8:00 AM 18.5 °F - 16.5 °F 92% 30.39 in - East 1.2 mph - N/A   Unknown
9:00 AM 16.9 °F - 14.9 °F 92% 30.38 in - Calm Calm - N/A   Unknown
10:00 AM 18.9 °F - 16.2 °F 89% 30.37 in - ENE 2.3 mph - N/A   Unknown
11:00 AM 18.9 °F - 15.4 °F 87% 30.35 in - East 2.3 mph - N/A   Unknown
12:00 PM 20 °F - 16 °F 79% 30.34 in - East 2.3 mph - -  
12:00 PM 20.3 °F - 16.3 °F 85% 30.34 in - East 2.3 mph - N/A   Unknown
1:00 PM 21.2 °F 14.9 °F 16.7 °F 83% 30.32 in - ENE 4.6 mph - N/A   Unknown
2:00 PM 22.1 °F 17.4 °F 16.9 °F 80% 30.30 in - ENE 3.5 mph - N/A   Unknown
3:00 PM 22.8 °F 18.2 °F 16.9 °F 78% 30.27 in - East 3.5 mph - N/A   Unknown
4:00 PM 22.8 °F 18.2 °F 17.8 °F 81% 30.26 in - East 3.5 mph - N/A   Unknown
5:00 PM 22.8 °F 16.7 °F 18.0 °F 82% 30.25 in - ENE 4.6 mph - N/A   Unknown
6:00 PM 22 °F - 17 °F 74% 30.24 in - ENE 4.6 mph - -  
6:00 PM 21.7 °F 15.5 °F 17.2 °F 83% 30.24 in - ENE 4.6 mph - N/A   Unknown
7:00 PM 21.0 °F - 17.2 °F 85% 30.24 in - ENE 2.3 mph - N/A   Unknown
8:00 PM 20.7 °F - 17.2 °F 87% 30.24 in - NE 2.3 mph - N/A   Unknown
9:00 PM 19.8 °F - 16.9 °F 89% 30.23 in - NE 2.3 mph - N/A   Unknown
10:00 PM 19.8 °F - 17.2 °F 90% 30.22 in - NE 2.3 mph - N/A   Unknown
11:00 PM 19.4 °F - 16.9 °F 90% 30.20 in - ENE 2.3 mph - N/A   Unknown